Kake, AK

10:16 AM AKST on December 05, 2016 (GMT -0900)
Kake

Weather History for PAFE - April, 2013

Change the Weather History Date:

Wednesday, April 17, 2013

  Actual Average Record
Temperature  
Mean Temperature 42 °F -  
Max Temperature 48 °F 45 °F 55 °F (1999)
Min Temperature 37 °F 33 °F 28 °F (2011)
Degree Days  
Heating Degree Days 22    
Moisture  
Dew Point 36 °F    
Average Humidity 80    
Maximum Humidity 93    
Minimum Humidity 58    
Precipitation  
Precipitation 0.06 in - - ()
Sea Level Pressure  
Sea Level Pressure 30.08 in    
Wind  
Wind Speed 12 mph (ESE)    
Max Wind Speed 18 mph    
Max Gust Speed 30 mph    
Visibility 9 miles    
Events      
Averages and records for this station are not official NWS values.
T = Trace of Precipitation, MM = Missing Value Source: NWS Daily Summary

Daily Weather History Graph

Daily Weather History Graph

Search for Another Location

Airport or City:

Trip Planner

Search our weather history database for the weather conditions in past years. The results will help you decide how hot, cold, wet, or windy it might be!

Date:

Astronomy

Apr. 17, 2013 Rise Set
Actual Time 5:41 AM AKDT 8:10 PM AKDT
Civil Twilight 4:59 AM AKDT 8:52 PM AKDT
Nautical Twilight 4:04 AM AKDT 9:47 PM AKDT
Astronomical Twilight 2:55 AM AKDT 10:58 PM AKDT
Moon 10:39 AM AKDT (4/17) 2:17 AM AKDT (4/17)
Length of Visible Light 15h 53m
Length of Day
14h 28m
Waxing Crescent, 44% of the Moon is Illuminated
Apr 17
Waxing Crescent
Apr 18
First Quarter
Apr 25
Full
May 2
Last Quarter
May 9
New

Hourly Weather History & Observations

Time (AKDT) Temp. Windchill Dew Point Humidity Pressure Visibility Wind Dir Wind Speed Gust Speed Precip Events Conditions
12:16 AM 37.4 °F 27.8 °F 32.0 °F 81% 30.05 in 10.0 mi SE 17.3 mph 23.0 mph N/A   Overcast
12:36 AM 37.4 °F 28.5 °F 33.8 °F 87% 30.05 in 10.0 mi SE 15.0 mph 21.9 mph 0.01 in   Overcast
12:56 AM 37.4 °F 28.2 °F 32.0 °F 81% 30.04 in 10.0 mi SE 16.1 mph 21.9 mph 0.01 in   Overcast
1:16 AM 37.4 °F 28.2 °F 33.8 °F 87% 30.04 in 10.0 mi SE 16.1 mph 24.2 mph N/A   Overcast
1:36 AM 37.4 °F 28.9 °F 33.8 °F 87% 30.03 in 10.0 mi SE 13.8 mph 18.4 mph N/A   Overcast
1:56 AM 37.4 °F 28.9 °F 32.0 °F 81% 30.02 in 10.0 mi SE 13.8 mph 24.2 mph 0.01 in   Overcast
2:16 AM 37.4 °F 27.5 °F 33.8 °F 87% 30.01 in 10.0 mi SE 18.4 mph 24.2 mph N/A   Overcast
2:36 AM 37.4 °F 27.8 °F 33.8 °F 87% 30.01 in 10.0 mi SE 17.3 mph 25.3 mph 0.01 in   Overcast
2:56 AM 37.4 °F 28.5 °F 33.8 °F 87% 30.02 in 10.0 mi SE 15.0 mph 20.7 mph 0.01 in   Overcast
3:16 AM 37.4 °F 27.8 °F 33.8 °F 87% 30.00 in 10.0 mi SE 17.3 mph 23.0 mph N/A   Overcast
3:36 AM 37.4 °F 28.5 °F 33.8 °F 87% 30.01 in 10.0 mi SE 15.0 mph 27.6 mph N/A   Overcast
3:56 AM 37.4 °F 28.2 °F 33.8 °F 87% 30.00 in 10.0 mi SE 16.1 mph 29.9 mph 0.01 in   Overcast
4:16 AM 37.4 °F 27.5 °F 33.8 °F 87% 29.99 in 10.0 mi SE 18.4 mph 23.0 mph N/A   Overcast
4:36 AM 37.4 °F 28.5 °F 33.8 °F 87% 30.00 in 10.0 mi SE 15.0 mph 21.9 mph N/A   Overcast
4:56 AM 37.4 °F 29.3 °F 33.8 °F 87% 30.00 in 10.0 mi ESE 12.7 mph 18.4 mph N/A   Overcast
5:16 AM 37.4 °F 29.8 °F 33.8 °F 87% 30.00 in 9.0 mi ESE 11.5 mph 19.6 mph N/A   Overcast
5:36 AM 37.4 °F 29.8 °F 33.8 °F 87% 30.00 in 10.0 mi ESE 11.5 mph - 0.01 in   Overcast
6:16 AM 37.4 °F 30.3 °F 33.8 °F 87% 30.00 in 10.0 mi ESE 10.4 mph - N/A   Overcast
6:36 AM 37.4 °F 29.8 °F 33.8 °F 87% 30.01 in 10.0 mi ESE 11.5 mph 18.4 mph N/A   Overcast
6:56 AM 37.4 °F 29.3 °F 33.8 °F 87% 30.01 in 6.0 mi ESE 12.7 mph 18.4 mph N/A   Overcast
7:16 AM 37.4 °F 29.8 °F 33.8 °F 87% 30.00 in 9.0 mi ESE 11.5 mph 18.4 mph N/A   Overcast
7:36 AM 37.4 °F 29.8 °F 35.6 °F 93% 30.01 in 8.0 mi ESE 11.5 mph 18.4 mph N/A   Overcast
7:56 AM 39.2 °F 31.6 °F 35.6 °F 87% 30.02 in 5.0 mi East 12.7 mph 18.4 mph N/A   Overcast
8:16 AM 39.2 °F 33.0 °F 35.6 °F 87% 30.02 in 6.0 mi East 9.2 mph - N/A   Overcast
8:36 AM 39.2 °F 32.0 °F 35.6 °F 87% 30.02 in 5.0 mi East 11.5 mph - N/A   Overcast
8:56 AM 39.2 °F 32.0 °F 35.6 °F 87% 30.02 in 4.0 mi ESE 11.5 mph 16.1 mph N/A   Overcast
9:16 AM 39.2 °F 32.5 °F 35.6 °F 87% 30.02 in 4.0 mi ESE 10.4 mph - N/A   Overcast
9:36 AM 39.2 °F 32.0 °F 37.4 °F 93% 30.03 in 5.0 mi ESE 11.5 mph 16.1 mph N/A   Overcast
9:56 AM 41.0 °F 34.7 °F 37.4 °F 87% 30.04 in 3.0 mi ESE 10.4 mph - N/A   Overcast
10:16 AM 41.0 °F 33.9 °F 37.4 °F 87% 30.04 in 5.0 mi SE 12.7 mph - N/A   Overcast
10:36 AM 42.8 °F 36.6 °F 39.2 °F 87% 30.05 in 4.0 mi SE 11.5 mph - N/A   Overcast
10:56 AM 42.8 °F 37.5 °F 39.2 °F 87% 30.06 in 5.0 mi SE 9.2 mph 16.1 mph N/A   Overcast
11:16 AM 42.8 °F 37.0 °F 39.2 °F 87% 30.06 in 7.0 mi SSE 10.4 mph - N/A   Overcast
11:36 AM 44.6 °F 40.2 °F 39.2 °F 81% 30.07 in 8.0 mi SSE 8.1 mph - N/A   Overcast
11:56 AM 44.6 °F 40.2 °F 41.0 °F 87% 30.08 in 5.0 mi SSE 8.1 mph - N/A   Overcast
12:36 PM 44.6 °F 39.7 °F 42.8 °F 93% 30.08 in 10.0 mi SSE 9.2 mph - 0.01 in   Mostly Cloudy
12:56 PM 46.4 °F 42.9 °F 42.8 °F 87% 30.08 in 10.0 mi South 6.9 mph - 0.01 in   Mostly Cloudy
1:16 PM 46.4 °F 43.5 °F 42.8 °F 87% 30.09 in 10.0 mi South 5.8 mph - N/A   Mostly Cloudy
1:36 PM 48.2 °F - 41.0 °F 76% 30.10 in 10.0 mi South 6.9 mph - N/A   Partly Cloudy
1:56 PM 48.2 °F - 39.2 °F 71% 30.09 in 10.0 mi South 6.9 mph - N/A   Clear
2:16 PM 48.2 °F - 39.2 °F 71% 30.10 in 10.0 mi South 6.9 mph - N/A   Clear
2:36 PM 48.2 °F - 37.4 °F 66% 30.10 in 10.0 mi SE 6.9 mph - N/A   Clear
2:56 PM 48.2 °F - 37.4 °F 66% 30.10 in 10.0 mi SSW 8.1 mph - N/A   Clear
3:16 PM 48.2 °F - 37.4 °F 66% 30.11 in 10.0 mi North 3.5 mph - N/A   Clear
3:36 PM 48.2 °F - 37.4 °F 66% 30.11 in 10.0 mi North 4.6 mph - N/A   Clear
3:56 PM 48.2 °F - 37.4 °F 66% 30.11 in 10.0 mi NW 8.1 mph - N/A   Clear
4:16 PM 48.2 °F - 37.4 °F 66% 30.11 in 10.0 mi NNE 10.4 mph - N/A   Clear
4:36 PM 48.2 °F - 35.6 °F 62% 30.13 in 10.0 mi NNW 9.2 mph - N/A   Clear
4:56 PM 46.4 °F 43.5 °F 35.6 °F 66% 30.13 in 10.0 mi North 5.8 mph - N/A   Clear
5:16 PM 46.4 °F 44.3 °F 35.6 °F 66% 30.13 in 10.0 mi NNW 4.6 mph - N/A   Clear
5:36 PM 48.2 °F - 33.8 °F 58% 30.13 in 10.0 mi NW 5.8 mph - N/A   Clear
5:56 PM 46.4 °F 43.5 °F 33.8 °F 62% 30.13 in 10.0 mi North 5.8 mph - N/A   Clear
6:16 PM 46.4 °F 42.9 °F 33.8 °F 62% 30.14 in 10.0 mi NNW 6.9 mph - N/A   Clear
6:36 PM 46.4 °F 43.5 °F 33.8 °F 62% 30.13 in 10.0 mi North 5.8 mph - N/A   Clear
6:56 PM 44.6 °F 43.1 °F 33.8 °F 66% 30.13 in 10.0 mi North 3.5 mph - N/A   Clear
7:16 PM 44.6 °F 43.1 °F 33.8 °F 66% 30.14 in 10.0 mi North 3.5 mph - N/A   Mostly Cloudy
7:36 PM 44.6 °F 43.1 °F 33.8 °F 66% 30.14 in 10.0 mi NNW 3.5 mph - N/A   Overcast
7:56 PM 44.6 °F - 33.8 °F 66% 30.14 in 10.0 mi Calm Calm - N/A   Overcast
8:16 PM 42.8 °F - 33.8 °F 70% 30.15 in 10.0 mi Calm Calm - N/A   Overcast
8:36 PM 42.8 °F - 35.6 °F 76% 30.15 in 10.0 mi Calm Calm - N/A   Overcast
8:56 PM 42.8 °F - 33.8 °F 70% 30.16 in 10.0 mi Calm Calm - N/A   Overcast
9:16 PM 41.0 °F 36.4 °F 35.6 °F 81% 30.16 in 10.0 mi East 6.9 mph - N/A   Scattered Clouds
9:36 PM 41.0 °F 35.8 °F 35.6 °F 81% 30.16 in 10.0 mi East 8.1 mph - N/A   Mostly Cloudy
9:56 PM 39.2 °F 34.2 °F 33.8 °F 81% 30.16 in 10.0 mi East 6.9 mph - N/A   Mostly Cloudy
10:16 PM 39.2 °F 33.6 °F 33.8 °F 81% 30.16 in 10.0 mi East 8.1 mph - N/A   Partly Cloudy
10:36 PM 37.4 °F 32.1 °F 33.8 °F 87% 30.16 in 10.0 mi East 6.9 mph - N/A   Clear
10:56 PM 37.4 °F 31.4 °F 33.8 °F 87% 30.16 in 10.0 mi ESE 8.1 mph - N/A   Clear
11:16 PM 37.4 °F 32.1 °F 33.8 °F 87% 30.16 in 10.0 mi East 6.9 mph - N/A   Clear
11:36 PM 37.4 °F 32.1 °F 33.8 °F 87% 30.16 in 10.0 mi East 6.9 mph - N/A   Clear
11:56 PM 37.4 °F 32.8 °F 32.0 °F 81% 30.16 in 10.0 mi ESE 5.8 mph - N/A   Clear